TRS 9

operational
NORAD ID: 635 Int'l Des: 1963-030 Owner: AFSSD Country: US
MEOCIRCULARPOLAR

Über TRS 9

Beschreibung wird geladen...

Live-Position

3D-Globus wird geladen...

Nächste Überflüge

Höhenverlauf

Altitude vs Time

uPlot chart will show altitude changes over time

Zweizeiliger Elementsatz

1 635U 63030B 25281.42451811 -.00000018 00000-0 -10374-1 0 9997
2 635 88.4228 228.9160 0044348 284.1662 75.4263 8.57948362948851
Epoch: 8. Okt. 2025 • Age: 3529 hours

Aktueller Status

Höhe 3739.7 km
Geschwindigkeit 6.27 km/s
Subsatellitenpunkt -5.58°S, 103.45°W
Typ other

Große Konstellationen

Loading constellations...